Wind_Speed
31 32 31 28 30 32 32 33 36 32 31 35 34 36 39 41 44 49 53 57 61 64 68 72 76 77 75 74 77 78 87 94 91 88 87 86 86 85 74 65 58 52 51 52
33 35 34 29 31 31 33 35 35 34 33 33 37 38 41 46 50 54 59 62 67 72 76 79 79 77 76 75 76 86 94 93 91 88 88 84 78 69 61 54 51 54 52 50
39 41 34 30 28 28 28 31 32 33 35 37 40 43 47 53 56 60 64 68 72 78 80 80 77 74 76 81 88 90 90 88 86 86 82 73 63 57 51 51 52 51 52 54
48 46 33 30 29 26 23 23 28 31 34 36 42 47 52 57 61 65 68 72 77 78 78 78 73 76 81 86 85 87 84 83 82 78 68 60 52 49 50 51 51 53 55 57
48 43 30 26 29 26 26 23 28 33 37 43 47 51 57 60 63 68 73 76 75 76 78 77 78 79 80 82 83 81 81 78 75 65 60 51 48 49 49 51 53 56 58 57
45 42 37 31 29 30 31 34 36 40 44 48 53 61 65 68 72 75 77 77 76 76 77 78 78 79 79 78 75 76 75 72 64 61 54 48 48 48 50 52 55 57 56 53
42 40 33 34 35 38 39 43 46 50 54 58 62 67 71 77 78 80 80 78 78 79 78 79 78 78 75 73 74 73 71 64 58 57 49 48 47 50 51 54 56 56 53 50
40 36 35 36 40 43 46 48 51 54 58 62 66 71 75 76 73 74 77 77 78 78 77 78 78 76 72 73 73 70 65 58 56 50 47 46 48 50 51 55 56 53 48 46
37 30 37 41 46 46 50 53 56 58 63 67 73 77 78 76 74 75 76 78 78 79 79 78 76 74 74 72 70 65 58 57 52 46 44 45 47 48 52 55 53 46 42 40
39 36 42 46 49 51 55 56 59 63 68 73 75 74 76 76 76 78 78 80 81 80 78 76 75 75 74 70 64 59 58 52 42 41 40 44 45 47 51 52 45 41 39 37
43 43 46 49 52 54 56 60 64 69 74 76 78 78 76 76 78 79 81 82 82 80 78 76 74 71 68 65 62 60 52 39 36 34 39 42 42 45 49 47 40 38 37 32
48 51 54 57 58 59 63 68 70 73 76 77 76 75 76 77 80 81 80 80 78 75 74 72 69 68 67 64 58 46 32 32 29 32 37 39 40 44 46 41 39 38 36 32
51 56 58 59 61 64 67 70 73 75 75 74 74 76 79 80 80 79 77 77 75 72 71 69 69 66 58 47 36 25 26 26 26 32 37 38 39 42 42 38 36 37 36 33
55 59 61 62 65 68 70 72 73 73 73 74 74 75 78 77 75 74 74 74 72 70 70 68 61 52 43 31 20 21 25 21 26 32 36 37 38 40 39 36 34 36 35 31
58 60 63 66 67 68 70 70 71 71 72 73 75 78 77 75 75 73 72 71 69 68 63 55 51 39 26 17 17 23 19 21 27 32 35 36 36 38 37 35 32 32 34 28
61 63 64 65 66 67 68 69 69 71 73 75 78 76 75 75 73 71 69 68 64 54 50 47 35 22 15 16 20 20 17 21 27 32 34 34 35 37 36 34 33 29 30 27
61 61 63 65 64 64 66 68 71 73 76 77 75 75 73 71 68 67 65 56 46 44 41 30 18 15 18 17 19 18 18 23 28 33 33 33 35 37 36 33 32 30 27 26
60 63 63 63 64 66 68 71 74 75 74 75 74 71 68 67 66 61 50 40 40 36 28 19 15 19 18 19 20 19 20 24 29 32 32 33 35 36 36 33 31 30 26 24
64 64 63 65 67 69 70 72 74 74 73 72 69 66 66 64 57 49 38 36 34 27 22 17 19 19 21 21 19 19 21 25 29 31 31 33 35 36 35 32 31 28 28 24
62 62 65 66 67 69 70 70 72 71 69 67 64 64 59 52 49 37 33 33 28 24 19 18 19 20 23 22 19 20 23 26 29 30 30 33 36 37 34 31 30 29 27 26
63 64 65 66 67 66 67 68 68 66 63 62 61 54 50 48 39 34 31 28 25 20 18 19 20 21 25 22 20 22 24 26 29 28 29 32 36 36 33 30 29 29 27 27
63 64 64 66 66 63 64 64 63 61 59 57 52 48 47 38 35 31 27 27 21 19 20 20 20 22 24 21 23 24 25 27 26 27 28 32 36 37 34 30 29 29 28 29
63 64 63 62 61 61 60 59 56 55 53 51 48 45 40 35 33 29 25 25 22 20 21 22 21 23 22 23 24 26 25 25 25 26 30 33 35 37 36 32 29 28 28 30
61 59 58 59 59 59 56 51 49 47 47 46 45 43 40 34 33 32 27 25 23 23 24 24 23 23 24 24 25 25 23 23 24 28 31 33 36 37 39 35 30 28 28 29
55 55 57 58 58 53 48 46 43 43 45 44 43 42 39 36 34 33 30 26 25 25 24 24 24 24 25 24 24 22 22 23 25 28 31 33 36 38 40 37 31 29 28 28
55 56 56 55 49 46 44 44 42 43 45 43 41 40 37 34 31 29 29 29 26 25 26 24 23 24 24 24 22 21 22 25 27 28 31 34 36 37 41 39 32 29 28 28
54 54 51 47 45 43 43 43 44 43 43 42 39 38 36 32 29 27 27 27 26 25 24 23 23 24 24 23 22 23 25 26 27 30 34 36 37 37 42 39 32 29 28 28
Wind_Direction
332 331 333 318 307 302 299 297 300 299 303 304 305 303 304 304 303 303 304 304 307 308 309 310 311 310 310 310 305 305 307 315 314 313 314 314 313 310 310 308 308 306 306 304
327 325 327 318 303 299 296 297 299 303 304 305 307 308 307 306 305 305 308 309 310 311 311 311 312 312 313 310 305 305 313 312 313 316 317 316 313 311 310 310 309 308 307 305
320 320 324 314 303 303 305 302 303 306 309 313 311 309 307 304 308 309 309 310 311 311 312 314 315 312 307 307 308 309 310 313 316 318 318 315 313 312 310 309 309 308 307 305
317 317 326 314 307 305 305 306 303 307 309 306 305 305 308 308 309 311 311 312 312 313 315 314 313 307 306 307 310 311 314 316 318 320 317 316 314 312 311 311 310 309 309 308
316 316 322 305 304 302 304 306 305 306 304 305 308 310 311 312 309 310 314 316 316 314 314 314 312 310 310 310 311 315 318 318 320 318 318 317 314 314 313 313 313 313 312 311
310 310 315 306 305 305 307 306 311 306 307 309 311 314 317 315 316 317 316 316 316 314 313 312 311 311 311 313 315 316 317 319 319 318 318 316 316 315 315 316 316 316 316 314
307 308 307 301 304 308 308 313 312 312 314 316 316 315 316 318 318 315 315 313 314 314 313 312 313 313 314 314 315 316 317 318 316 317 315 316 316 316 318 319 319 319 318 316
306 308 301 298 303 307 310 311 312 313 314 313 313 313 316 314 311 309 310 313 312 312 314 313 313 313 314 313 314 315 317 315 315 314 314 316 317 319 320 321 322 322 322 320
305 313 300 300 303 305 309 310 313 313 314 313 313 313 314 313 311 311 312 312 313 314 313 313 313 312 311 312 313 314 313 313 314 312 314 315 319 321 323 324 325 327 326 323
304 307 302 302 302 306 308 310 311 310 310 313 312 309 309 311 312 312 313 313 312 312 313 312 310 311 311 311 313 312 312 312 310 310 314 319 322 323 326 328 330 331 329 327
304 306 305 304 306 306 307 308 309 311 312 309 309 311 312 312 313 313 313 312 313 312 312 310 310 310 310 311 309 308 309 308 307 311 318 323 323 328 330 331 334 335 334 332
304 305 306 308 309 309 309 310 310 309 307 308 310 311 312 313 313 313 312 312 312 312 311 312 311 310 309 307 306 307 307 305 307 316 324 325 326 331 333 334 335 338 336 335
304 305 307 307 308 309 308 307 306 306 308 310 311 312 312 313 313 313 312 313 314 313 313 312 311 310 311 309 308 306 305 303 312 323 328 328 330 334 336 337 337 339 338 339
304 306 307 307 306 305 305 305 306 307 309 311 312 312 313 313 314 314 314 315 314 313 312 313 313 314 312 308 306 308 300 305 317 325 328 330 332 336 337 340 339 340 342 343
303 304 304 304 305 304 302 305 306 308 310 311 313 314 315 316 315 315 315 314 314 314 314 315 316 315 311 304 307 304 300 309 320 327 331 331 333 337 337 340 340 341 344 344
302 302 302 301 301 302 304 306 309 310 312 314 315 316 316 316 315 314 314 314 315 314 317 319 318 316 312 308 309 303 303 312 321 328 331 331 334 337 337 339 342 341 344 344
299 299 299 300 303 305 307 310 311 312 314 316 316 316 315 314 314 315 315 315 315 319 323 324 321 320 314 313 314 307 305 314 321 328 330 331 334 338 338 336 340 343 340 342
298 300 301 304 306 309 309 310 313 315 316 316 316 315 315 315 315 316 315 313 319 324 325 323 322 321 315 317 315 306 308 315 321 328 330 331 334 337 338 336 335 341 340 337
301 302 305 307 308 309 311 313 315 316 316 316 316 316 316 316 316 318 313 316 321 322 319 317 320 318 315 315 314 309 311 316 323 327 328 331 334 336 336 334 335 333 340 335
301 304 305 307 309 312 314 314 315 316 315 316 317 317 317 317 318 316 313 318 319 316 313 311 314 317 318 319 318 315 316 320 324 325 328 332 334 335 334 333 333 333 332 337
303 304 306 308 310 313 313 314 315 315 316 317 319 320 321 322 321 319 316 318 316 312 310 308 309 311 315 315 316 316 318 320 321 323 329 335 338 337 334 331 332 334 331 332
303 305 307 308 311 312 312 313 313 315 316 320 322 322 325 324 323 321 315 317 314 311 309 309 311 309 312 311 315 316 316 318 319 322 329 335 339 340 334 331 331 333 332 331
303 304 307 309 310 311 311 312 313 315 319 322 323 324 326 324 327 324 312 314 309 304 307 313 310 309 311 317 315 315 315 315 318 324 330 332 335 341 338 331 329 331 333 332
303 306 308 308 308 309 311 311 313 316 320 322 324 324 323 318 326 326 316 307 308 303 303 308 308 310 311 311 311 315 314 315 319 324 329 332 333 336 340 333 327 327 329 330
305 306 306 307 307 309 309 311 311 313 319 321 322 322 320 316 314 321 321 312 301 301 303 305 306 306 308 308 313 311 312 317 321 324 326 331 332 331 336 334 326 324 326 328
305 305 305 306 306 307 307 307 308 310 316 316 318 318 318 318 315 314 320 316 310 302 299 301 303 305 304 311 310 310 312 316 319 326 329 330 331 329 333 333 324 322 323 324
302 303 304 304 304 305 304 305 305 306 310 311 315 315 316 313 315 311 312 314 308 302 300 302 300 300 305 310 305 309 314 316 321 324 330 330 330 327 332 331 323 321 321 321
Height
5779 5774 5772 5765 5758 5752 5750 5747 5743 5744 5742 5736 5734 5730 5726 5721 5715 5708 5702 5694 5686 5678 5668 5658 5647 5635 5624 5612 5601 5591 5580 5566 5554 5543 5530 5516 5501 5487 5474 5465 5456 5449 5443 5436
5774 5768 5765 5759 5750 5746 5742 5739 5736 5733 5731 5730 5724 5720 5715 5709 5702 5696 5688 5680 5672 5662 5652 5641 5629 5617 5605 5595 5585 5573 5560 5547 5534 5522 5508 5493 5479 5468 5458 5450 5443 5436 5429 5422
5764 5760 5758 5751 5744 5740 5737 5732 5729 5726 5723 5719 5714 5709 5704 5696 5691 5684 5675 5666 5657 5646 5634 5622 5610 5600 5590 5578 5566 5555 5542 5529 5515 5502 5488 5475 5463 5454 5445 5439 5431 5424 5416 5409
5752 5748 5751 5742 5736 5733 5731 5729 5724 5721 5717 5713 5708 5701 5695 5687 5678 5669 5661 5651 5640 5627 5614 5604 5594 5584 5573 5561 5548 5536 5523 5509 5496 5484 5471 5461 5451 5443 5435 5428 5420 5411 5403 5394
5743 5739 5744 5734 5730 5726 5723 5725 5719 5714 5709 5703 5698 5692 5683 5675 5666 5656 5644 5631 5619 5609 5599 5589 5578 5567 5555 5543 5530 5516 5504 5491 5480 5469 5458 5448 5440 5433 5424 5416 5407 5398 5388 5378
5734 5730 5728 5725 5723 5720 5716 5712 5709 5705 5699 5693 5686 5676 5666 5655 5644 5634 5623 5613 5604 5594 5583 5571 5560 5548 5537 5525 5513 5501 5489 5478 5466 5456 5446 5438 5430 5422 5413 5404 5395 5385 5374 5364
5726 5722 5723 5716 5713 5710 5706 5705 5696 5690 5683 5675 5666 5658 5649 5640 5628 5618 5609 5598 5588 5577 5566 5553 5542 5532 5520 5508 5497 5487 5475 5464 5454 5445 5436 5428 5420 5411 5403 5393 5383 5371 5361 5352
5718 5716 5712 5708 5705 5700 5696 5691 5685 5678 5671 5663 5654 5646 5635 5626 5616 5605 5594 5583 5571 5560 5550 5538 5526 5515 5506 5494 5482 5472 5461 5452 5444 5434 5427 5419 5410 5401 5392 5382 5371 5360 5350 5341
5712 5712 5703 5699 5695 5691 5686 5680 5673 5665 5657 5649 5640 5630 5618 5607 5597 5587 5576 5566 5554 5543 5533 5522 5508 5498 5489 5480 5469 5459 5449 5440 5433 5424 5417 5410 5401 5392 5383 5372 5361 5351 5342 5333
5704 5703 5696 5691 5686 5682 5674 5668 5660 5652 5643 5633 5624 5613 5603 5592 5581 5570 5559 5548 5538 5527 5516 5505 5494 5482 5470 5462 5453 5444 5436 5429 5422 5416 5409 5401 5392 5383 5374 5363 5353 5344 5335 5326
5696 5692 5686 5682 5676 5669 5662 5654 5644 5634 5624 5615 5606 5597 5587 5578 5566 5555 5544 5532 5520 5508 5498 5487 5476 5465 5455 5446 5438 5431 5424 5418 5413 5408 5401 5393 5385 5377 5365 5355 5347 5338 5329 5321
5684 5679 5673 5667 5661 5654 5646 5638 5630 5621 5610 5600 5590 5582 5572 5562 5549 5536 5525 5514 5502 5491 5478 5468 5458 5447 5438 5429 5422 5417 5412 5410 5405 5400 5394 5386 5378 5369 5360 5350 5341 5333 5324 5317
5672 5666 5660 5653 5646 5639 5631 5624 5615 5605 5595 5586 5576 5562 5553 5544 5533 5520 5507 5495 5484 5472 5461 5451 5441 5431 5421 5414 5409 5407 5405 5402 5399 5394 5388 5380 5372 5363 5354 5345 5337 5330 5320 5313
5657 5651 5645 5638 5631 5625 5616 5607 5598 5589 5578 5568 5558 5548 5536 5525 5515 5502 5489 5478 5468 5457 5445 5434 5424 5416 5409 5404 5402 5401 5398 5396 5393 5388 5382 5374 5367 5359 5350 5342 5334 5326 5318 5311
5643 5637 5630 5623 5616 5608 5600 5592 5584 5574 5565 5555 5542 5530 5520 5509 5497 5485 5473 5462 5452 5440 5430 5421 5412 5405 5401 5398 5397 5395 5393 5391 5387 5382 5376 5369 5362 5354 5346 5339 5332 5324 5317 5310
5629 5623 5616 5609 5601 5593 5585 5576 5568 5560 5548 5537 5526 5515 5503 5491 5479 5469 5459 5448 5437 5428 5419 5410 5403 5399 5397 5395 5393 5390 5388 5386 5382 5377 5371 5364 5357 5350 5343 5336 5329 5323 5316 5309
5614 5608 5602 5594 5587 5578 5569 5559 5549 5539 5529 5518 5509 5499 5489 5477 5467 5455 5444 5434 5425 5418 5410 5403 5399 5397 5394 5392 5389 5386 5384 5381 5377 5372 5366 5360 5353 5346 5339 5333 5326 5320 5315 5309
5599 5593 5585 5578 5570 5561 5553 5543 5532 5522 5512 5503 5493 5483 5472 5461 5450 5442 5432 5424 5418 5411 5405 5401 5397 5394 5392 5388 5385 5382 5380 5377 5372 5367 5361 5355 5349 5342 5335 5329 5323 5318 5312 5307
5581 5574 5567 5560 5552 5544 5534 5525 5516 5507 5497 5488 5478 5469 5457 5446 5436 5429 5421 5416 5410 5406 5401 5397 5394 5391 5388 5385 5381 5378 5375 5372 5368 5362 5356 5351 5344 5338 5331 5325 5320 5315 5310 5305
5565 5559 5552 5545 5536 5526 5518 5508 5501 5494 5482 5473 5464 5453 5444 5434 5425 5418 5413 5408 5403 5400 5396 5393 5390 5387 5384 5380 5377 5374 5371 5367 5363 5358 5352 5346 5340 5333 5327 5321 5316 5311 5306 5302
5550 5543 5536 5529 5522 5513 5503 5495 5487 5480 5472 5461 5450 5440 5432 5423 5415 5409 5405 5401 5398 5394 5391 5389 5386 5383 5379 5376 5373 5369 5366 5362 5357 5353 5348 5342 5336 5329 5323 5317 5312 5307 5302 5298
5534 5528 5521 5513 5507 5502 5492 5483 5474 5467 5458 5449 5439 5430 5422 5415 5408 5403 5398 5395 5391 5389 5386 5384 5381 5378 5375 5371 5368 5364 5361 5356 5352 5348 5343 5337 5331 5325 5318 5313 5308 5303 5298 5294
5520 5512 5506 5500 5494 5488 5481 5471 5463 5454 5446 5437 5429 5422 5415 5408 5402 5397 5394 5390 5386 5384 5381 5378 5376 5373 5369 5366 5362 5358 5355 5351 5347 5343 5338 5333 5327 5321 5314 5308 5303 5298 5293 5289
5504 5498 5492 5485 5480 5473 5468 5460 5451 5442 5435 5428 5421 5413 5407 5403 5398 5392 5387 5383 5381 5378 5376 5373 5370 5367 5364 5360 5356 5353 5349 5345 5342 5338 5333 5328 5322 5316 5310 5303 5298 5294 5289 5284
5489 5484 5478 5471 5464 5459 5453 5446 5440 5433 5427 5420 5413 5406 5400 5395 5390 5386 5381 5377 5374 5371 5369 5367 5364 5361 5357 5354 5350 5347 5344 5340 5336 5332 5327 5322 5316 5310 5305 5298 5293 5288 5284 5279
5474 5469 5463 5456 5450 5445 5439 5434 5429 5423 5417 5412 5406 5399 5394 5388 5383 5379 5375 5371 5367 5364 5362 5360 5357 5355 5352 5348 5344 5341 5338 5335 5331 5327 5322 5317 5311 5305 5299 5293 5287 5283 5278 5273
5459 5454 5449 5443 5437 5432 5427 5422 5417 5413 5407 5400 5397 5391 5386 5381 5377 5373 5369 5365 5362 5358 5355 5353 5351 5348 5345 5342 5338 5335 5332 5328 5324 5320 5315 5310 5305 5299 5293 5286 5281 5277 5272 5267